TimeIST,TemperatureF,Dew PointF,Humidity,Sea Level PressureIn,VisibilityMPH,Wind Direction,Wind SpeedMPH,Gust SpeedMPH,PrecipitationIn,Events,Conditions,WindDirDegrees,DateUTC
1:00 AM,46,45,96,30.00,,SSE,6.7,,,,,150,2013-05-07 00:00:00
7:00 AM,45,45,98,29.96,0,SE,8.9,,,Fog,Heavy Fog,140,2013-05-07 06:00:00
7:00 AM,44.6,44.6,100,29.92,0.2,SE,8.1,-,N/A,Fog,Fog,140,2013-05-07 06:00:00
7:30 AM,46.4,46.4,100,29.92,0.2,SE,8.1,-,N/A,Fog,Fog,130,2013-05-07 06:30:00
8:00 AM,46.4,46.4,100,29.92,0.4,SE,10.4,-,N/A,Fog,Fog,130,2013-05-07 07:00:00
8:30 AM,46.4,46.4,100,29.92,0.6,SE,10.4,-,N/A,Fog,Fog,130,2013-05-07 07:30:00
9:00 AM,48.2,48.2,100,29.92,2.2,SE,11.5,-,N/A,,Overcast,130,2013-05-07 08:00:00
9:30 AM,50.0,48.2,94,29.92,3.7,ESE,11.5,-,N/A,,Mostly Cloudy,120,2013-05-07 08:30:00
10:00 AM,51.8,48.2,88,29.92,5.6,SE,11.5,-,N/A,,Mostly Cloudy,130,2013-05-07 09:00:00
10:30 AM,55.4,48.2,77,29.92,6.2,SE,13.8,-,N/A,,Mostly Cloudy,130,2013-05-07 09:30:00
11:00 AM,55.4,48.2,77,29.92,6.2,SE,13.8,-,N/A,,Mostly Cloudy,140,2013-05-07 10:00:00
11:30 AM,55.4,46.4,72,29.89,6.2,SE,13.8,-,N/A,,Mostly Cloudy,140,2013-05-07 10:30:00
12:00 PM,57.2,48.2,72,29.89,6.2,SSE,11.5,-,N/A,,Mostly Cloudy,150,2013-05-07 11:00:00
12:30 PM,57.2,46.4,67,29.89,6.2,SE,13.8,-,N/A,,Mostly Cloudy,140,2013-05-07 11:30:00
1:00 PM,58,47,56,29.88,22,SE,13.4,,,,Partly Cloudy,140,2013-05-07 12:00:00
1:00 PM,59.0,46.4,63,29.89,6.2,SE,12.7,-,N/A,,Mostly Cloudy,140,2013-05-07 12:00:00
1:30 PM,59.0,46.4,63,29.86,6.2,SE,13.8,-,N/A,Rain,Light Rain,130,2013-05-07 12:30:00
2:00 PM,59.0,46.4,63,29.86,6.2,SE,13.8,25.3,N/A,Rain,Light Rain,130,2013-05-07 13:00:00
2:30 PM,59.0,46.4,63,29.83,6.2,SE,16.1,-,N/A,Rain,Light Rain,130,2013-05-07 13:30:00
3:00 PM,59.0,46.4,63,29.83,6.2,SE,18.4,-,N/A,,Overcast,130,2013-05-07 14:00:00
3:30 PM,59.0,46.4,63,29.80,6.2,SE,17.3,-,N/A,,Overcast,130,2013-05-07 14:30:00
4:00 PM,59.0,46.4,63,29.80,6.2,SE,16.1,-,N/A,,Overcast,130,2013-05-07 15:00:00
4:30 PM,59.0,46.4,63,29.77,6.2,SE,15.0,26.5,N/A,Rain,Light Rain,130,2013-05-07 15:30:00
5:00 PM,57.2,48.2,72,29.77,6.2,SE,12.7,-,N/A,Rain,Light Rain,130,2013-05-07 16:00:00
5:30 PM,57.2,44.6,63,29.74,6.2,SE,16.1,-,N/A,Rain,Light Rain,140,2013-05-07 16:30:00
6:00 PM,55.4,46.4,72,29.74,6.2,SE,18.4,33.4,N/A,Rain,Light Rain,140,2013-05-07 17:00:00
7:00 PM,56,44,54,29.74,16,SE,15.7,,,Rain,Light Rain,140,2013-05-07 18:00:00
7:00 PM,55.4,44.6,67,29.71,6.2,SE,15.0,-,N/A,,Overcast,140,2013-05-07 18:00:00